Thedford, NE

4:15 PM CDT on August 26, 2016 (GMT -0500)
Thedford

Weather History for KTIF - December, 2013

Change the Weather History Date:

Wednesday, December 25, 2013

  Actual Average (KLBF) Record (KLBF)
Temperature  
Mean Temperature 33 °F 24 °F  
Max Temperature 40 °F 38 °F 65 °F (1999)
Min Temperature 26 °F 11 °F -25 °F (1879)
Degree Days  
Heating Degree Days 32 41  
Month to date heating degree days 986  
Since 1 July heating degree days 2537  
Cooling Degree Days 0 0  
Month to date cooling degree days 0  
Year to date cooling degree days 768  
Moisture  
Dew Point 21 °F    
Average Humidity 67    
Maximum Humidity 88    
Minimum Humidity 43    
Precipitation  
Precipitation 0.00 in 0.01 in 0.19 in (1941)
Month to date precipitation 0.33  
Year to date precipitation 20.15  
Snow  
Snow 0.00 in 0.20 in 4.00 in (1888)
Month to date snowfall 3.7  
Since 1 July snowfall 9.9  
Snow Depth -    
Sea Level Pressure  
Sea Level Pressure 30.24 in    
Wind  
Wind Speed 10 mph (WNW)    
Max Wind Speed 20 mph    
Max Gust Speed 25 mph    
Visibility 10 miles    
Events      
T = Trace of Precipitation, MM = Missing Value Source: NWS Daily Summary

Daily Weather History Graph

Daily Weather History Graph

Search for Another Location

Airport or City:

Trip Planner

Search our weather history database for the weather conditions in past years. The results will help you decide how hot, cold, wet, or windy it might be!

Date:

Astronomy

Dec. 25, 2013 Rise Set
Actual Time 8:08 AM CST 5:16 PM CST
Civil Twilight 7:36 AM CST 5:48 PM CST
Nautical Twilight 7:01 AM CST 6:23 PM CST
Astronomical Twilight 6:27 AM CST 6:57 PM CST
Moon 12:32 AM CST (12/25) 12:26 PM CST (12/25)
Length of Visible Light 10h 11m
Length of Day
9h 07m
Waning Gibbous, 48% of the Moon is Illuminated
Dec 25
Waning Gibbous
Jan 1
New
Jan 7
First Quarter
Jan 15
Full
Jan 23
Last Quarter

Hourly Weather History & Observations

Time (CST) Temp. Windchill Dew Point Humidity Pressure Visibility Wind Dir Wind Speed Gust Speed Precip Events Conditions
12:15 AM 27.5 °F 19.3 °F 24.3 °F 88% 30.21 in 10.0 mi West 8.1 mph - N/A   Clear
12:35 AM 28.0 °F 19.3 °F 24.8 °F 88% 30.21 in 10.0 mi West 9.2 mph - N/A   Clear
12:55 AM 29.1 °F 20.6 °F 25.0 °F 85% 30.21 in 10.0 mi West 9.2 mph - N/A   Clear
1:15 AM 29.7 °F 20.7 °F 24.8 °F 82% 30.21 in 10.0 mi WSW 10.4 mph - N/A   Clear
1:35 AM 29.3 °F 19.6 °F 24.8 °F 83% 30.20 in 10.0 mi West 11.5 mph - N/A   Clear
1:55 AM 29.3 °F 20.2 °F 24.3 °F 81% 30.20 in 10.0 mi West 10.4 mph - N/A   Clear
2:15 AM 28.9 °F 20.4 °F 23.9 °F 81% 30.20 in 10.0 mi West 9.2 mph - N/A   Clear
2:35 AM 29.5 °F 19.9 °F 23.9 °F 80% 30.21 in 10.0 mi West 11.5 mph - N/A   Clear
2:55 AM 29.7 °F 20.7 °F 23.7 °F 79% 30.21 in 10.0 mi West 10.4 mph - N/A   Clear
3:15 AM 29.1 °F 20.0 °F 23.0 °F 78% 30.21 in 10.0 mi West 10.4 mph - N/A   Clear
3:35 AM 29.5 °F 19.9 °F 23.2 °F 77% 30.22 in 10.0 mi West 11.5 mph - N/A   Clear
3:55 AM 30.2 °F 20.2 °F 23.0 °F 75% 30.21 in 10.0 mi WNW 12.7 mph - N/A   Clear
4:15 AM 29.1 °F 20.6 °F 22.5 °F 76% 30.21 in 10.0 mi WNW 9.2 mph - N/A   Clear
4:35 AM 28.4 °F 20.4 °F 21.9 °F 77% 30.21 in 10.0 mi WNW 8.1 mph - N/A   Clear
4:55 AM 28.4 °F 19.7 °F 21.7 °F 76% 30.21 in 10.0 mi WNW 9.2 mph - N/A   Clear
5:15 AM 28.9 °F 18.6 °F 21.7 °F 74% 30.21 in 10.0 mi WNW 12.7 mph - N/A   Clear
5:35 AM 28.4 °F 18.5 °F 21.2 °F 74% 30.22 in 10.0 mi WNW 11.5 mph - N/A   Clear
5:55 AM 28.4 °F 18.0 °F 21.0 °F 74% 30.22 in 10.0 mi WNW 12.7 mph 17.3 mph N/A   Clear
6:15 AM 28.4 °F 18.5 °F 20.7 °F 73% 30.23 in 10.0 mi WNW 11.5 mph 17.3 mph N/A   Clear
6:35 AM 28.9 °F 19.8 °F 20.5 °F 71% 30.24 in 10.0 mi WNW 10.4 mph - N/A   Clear
6:55 AM 28.2 °F 18.3 °F 20.3 °F 72% 30.25 in 10.0 mi WNW 11.5 mph - N/A   Clear
7:15 AM 28.9 °F 18.2 °F 20.1 °F 70% 30.25 in 10.0 mi WNW 13.8 mph 20.7 mph N/A   Clear
7:35 AM 28.0 °F 17.5 °F 19.9 °F 72% 30.26 in 10.0 mi WNW 12.7 mph 16.1 mph N/A   Clear
7:55 AM 27.9 °F 19.1 °F 19.9 °F 72% 30.26 in 10.0 mi WNW 9.2 mph 16.1 mph N/A   Clear
8:15 AM 27.3 °F 18.4 °F 19.8 °F 73% 30.27 in 10.0 mi WNW 9.2 mph - N/A   Clear
8:35 AM 27.5 °F 18.6 °F 19.9 °F 73% 30.28 in 10.0 mi WNW 9.2 mph - N/A   Clear
8:55 AM 27.9 °F 19.8 °F 20.3 °F 73% 30.28 in 10.0 mi NW 8.1 mph - N/A   Clear
9:15 AM 29.5 °F 20.4 °F 20.7 °F 70% 30.29 in 10.0 mi WNW 10.4 mph - N/A   Clear
9:35 AM 30.4 °F 21.5 °F 21.2 °F 69% 30.30 in 10.0 mi WNW 10.4 mph - N/A   Clear
9:55 AM 32.0 °F 23.0 °F 21.7 °F 66% 30.31 in 10.0 mi WNW 11.5 mph - N/A   Clear
10:15 AM 33.3 °F 24.6 °F 21.9 °F 63% 30.32 in 10.0 mi NW 11.5 mph - N/A   Clear
10:35 AM 35.1 °F 26.9 °F 22.1 °F 59% 30.33 in 10.0 mi NW 11.5 mph 19.6 mph N/A   Clear
10:55 AM 36.0 °F 26.3 °F 22.3 °F 58% 30.33 in 10.0 mi NW 16.1 mph 25.3 mph N/A   Clear
11:15 AM 36.7 °F 27.6 °F 22.1 °F 56% 30.33 in 10.0 mi NNW 15.0 mph - N/A   Clear
11:35 AM 37.0 °F 27.0 °F 22.1 °F 55% 30.33 in 10.0 mi NW 18.4 mph 24.2 mph N/A   Clear
11:55 AM 37.4 °F 27.2 °F 22.1 °F 54% 30.32 in 10.0 mi NNW 19.6 mph 25.3 mph N/A   Clear
12:15 PM 38.1 °F 28.1 °F 22.1 °F 53% 30.32 in 10.0 mi NW 19.6 mph 23.0 mph N/A   Clear
12:35 PM 38.3 °F 29.0 °F 21.9 °F 52% 30.32 in 10.0 mi NW 17.3 mph 24.2 mph N/A   Clear
12:55 PM 39.4 °F 30.7 °F 21.9 °F 50% 30.31 in 10.0 mi NW 16.1 mph 21.9 mph N/A   Clear
1:15 PM 39.4 °F 30.4 °F 21.0 °F 48% 30.30 in 10.0 mi NW 17.3 mph 24.2 mph N/A   Clear
1:35 PM 39.4 °F 30.7 °F 20.8 °F 47% 30.29 in 10.0 mi NW 16.1 mph 21.9 mph N/A   Clear
1:55 PM 39.9 °F 31.8 °F 20.3 °F 45% 30.29 in 10.0 mi WNW 15.0 mph 20.7 mph N/A   Clear
2:15 PM 40.1 °F 32.7 °F 20.1 °F 45% 30.28 in 10.0 mi NW 12.7 mph 23.0 mph N/A   Clear
2:35 PM 40.1 °F 31.3 °F 20.1 °F 45% 30.28 in 10.0 mi NW 17.3 mph 24.2 mph N/A   Clear
2:55 PM 40.1 °F 32.0 °F 19.2 °F 43% 30.28 in 10.0 mi NW 15.0 mph 21.9 mph N/A   Clear
3:15 PM 40.1 °F 33.2 °F 19.4 °F 43% 30.28 in 10.0 mi NW 11.5 mph - N/A   Clear
3:35 PM 39.6 °F 31.7 °F 19.4 °F 44% 30.27 in 10.0 mi NW 13.8 mph 18.4 mph N/A   Clear
3:55 PM 39.4 °F 32.3 °F 19.4 °F 45% 30.27 in 10.0 mi NW 11.5 mph - N/A   Clear
4:15 PM 39.2 °F 35.0 °F 19.4 °F 45% 30.27 in 10.0 mi WNW 5.8 mph - N/A   Clear
4:35 PM 37.9 °F 33.5 °F 19.2 °F 47% 30.27 in 10.0 mi WNW 5.8 mph - N/A   Clear
4:55 PM 35.4 °F 30.5 °F 19.4 °F 52% 30.26 in 10.0 mi West 5.8 mph - N/A   Clear
5:15 PM 34.0 °F 29.8 °F 19.8 °F 56% 30.26 in 10.0 mi WSW 4.6 mph - N/A   Clear
5:35 PM 32.0 °F 27.5 °F 19.4 °F 60% 30.25 in 10.0 mi SW 4.6 mph - N/A   Clear
5:55 PM 30.7 °F - 19.4 °F 63% 30.25 in 10.0 mi Calm Calm - N/A   Clear
6:15 PM 29.7 °F 23.7 °F 19.6 °F 66% 30.24 in 10.0 mi SW 5.8 mph - N/A   Clear
6:35 PM 29.8 °F 23.0 °F 19.9 °F 67% 30.23 in 10.0 mi SW 6.9 mph - N/A   Clear
6:55 PM 29.3 °F 22.3 °F 19.9 °F 68% 30.23 in 10.0 mi SW 6.9 mph - N/A   Clear
7:15 PM 27.3 °F - 19.2 °F 72% 30.22 in 10.0 mi Calm Calm - N/A   Clear
7:35 PM 26.6 °F - 19.4 °F 74% 30.22 in 10.0 mi Calm Calm - N/A   Clear
7:55 PM 27.0 °F 21.6 °F 19.8 °F 74% 30.22 in 10.0 mi WSW 4.6 mph - N/A   Clear
8:15 PM 27.1 °F 19.7 °F 20.3 °F 75% 30.21 in 10.0 mi SW 6.9 mph - N/A   Clear
8:35 PM 27.5 °F 22.2 °F 20.3 °F 74% 30.20 in 10.0 mi SW 4.6 mph - N/A   Clear
8:55 PM 26.8 °F 21.4 °F 20.3 °F 77% 30.19 in 10.0 mi WSW 4.6 mph - N/A   Clear
9:15 PM 27.3 °F 23.4 °F 20.3 °F 75% 30.19 in 10.0 mi WSW 3.5 mph - N/A   Clear
9:35 PM 27.5 °F 23.6 °F 20.3 °F 74% 30.18 in 10.0 mi WSW 3.5 mph - N/A   Clear
9:55 PM 28.4 °F 24.6 °F 20.7 °F 73% 30.17 in 10.0 mi WSW 3.5 mph - N/A   Clear
10:15 PM 27.9 °F - 20.3 °F 73% 30.16 in 10.0 mi Calm Calm - N/A   Clear
10:35 PM 26.6 °F 22.6 °F 19.8 °F 75% 30.16 in 10.0 mi WSW 3.5 mph - N/A   Clear
10:55 PM 28.9 °F 25.2 °F 19.8 °F 69% 30.16 in 10.0 mi WSW 3.5 mph - N/A   Clear
11:15 PM 28.6 °F 22.4 °F 19.6 °F 69% 30.14 in 10.0 mi SW 5.8 mph - N/A   Clear
11:35 PM 28.4 °F 24.6 °F 19.2 °F 69% 30.14 in 10.0 mi SW 3.5 mph - N/A   Clear
11:55 PM 28.4 °F 22.2 °F 18.9 °F 67% 30.14 in 10.0 mi WSW 5.8 mph - N/A   Clear